User: anonymous   Login
Location: Unspecified
(43.4354°N, 0.0000°E)
Time: 23:11:38
(UTC+00:00)
Language:

CUTE-I - Orbit

View from above orbital plane
View from above orbital plane
View from above satellite
View from above satellite

Ground track
Ground track

The orbit data is extracted from the following two-line orbital elements,

1 27844U 03031E   19201.03090901  .00000022  00000-0  29452-4 0  9997
2 27844  98.6833 208.7752 0008788 305.1978  54.8376 14.22185819832747
Epoch (UTC): 20 July 2019 00:44:30
Eccentricity: 0.0008788
inclination: 98.6833°
perigee height: 811 km
apogee height: 824 km
right ascension of ascending node: 208.7752°
argument of perigee: 305.1978°
revolutions per day: 14.22185819
mean anomaly at epoch: 54.8376°
orbit number at epoch: 83274

The dashed part of the orbit path shows where the satellite is in the earth's shadow,  

DLR